ISS
1 25544U 98067A 12333.60875234 .00013656 00000-0 23040-3 0 7325
2 25544 051.6499 024.7441 0015766 340.1845 155.9317 15.51837211803554
CO-58
1 28895U 05043F 12333.61850385 .00000731 00000-0 15834-3 0 03395
2 28895 097.8892 192.4617 0017779 357.3451 002.7668 14.60872063377661
FALCON
1 30776U 07006E 12334.22338918 .00005512 00000-0 34374-3 0 4942
2 30776 035.4354 347.8356 0001630 321.4610 038.5981 15.09013153315182
MAST
1 31126U 07012K 12333.94137635 .00000878 00000-0 20551-3 0 06214
2 31126 097.8742 335.4238 0093069 317.8122 041.5945 14.54366314298218
CAPE1
1 31130U 07012P 12333.49258281 .00001158 00000-0 27178-3 0 06292
2 31130 097.8865 331.3208 0100779 333.4667 026.1284 14.53210738297633
COMPASS
1 32787U 08021E 12334.16126301 .00002011 00000-0 24320-3 0 4769
2 32787 097.7819 031.7288 0013977 239.1753 120.8012 14.84730157248284
AAUSAT2
1 32788U 08021F 12334.15949821 .00002189 00000-0 26172-3 0 4672
2 32788 097.7814 032.2082 0013439 235.2851 124.7048 14.85117310248314
DO-64
1 32789U 08021G 12334.15131076 .00004624 00000-0 51975-3 0 4875
2 32789 097.7944 034.9163 0013387 233.5144 126.4756 14.87132237248385
CO-66
1 32791U 08021J 12333.81754372 .00002088 00000-0 25659-3 0 04647
2 32791 097.7804 030.9873 0014317 238.8333 121.1394 14.84014332248156
RS-30
1 32953U 08025A 12334.04873358 .00000010 00000-0 00000 0 0 3655
2 32953 082.5015 192.6249 0018617 311.7776 048.1715 12.43029943205047
PHARMSAT
1 35002U 09028B 12226.86484473 .07728342 73476-5 57159-3 0 789
2 35002 040.4341 050.6671 0012079 300.9773 059.0492 16.39309245183554
METEOR-M
1 35865U 09049A 12334.16628705 .00000008 00000-0 23394-4 0 58
2 35865 098.6336 025.2102 0002003 315.2148 044.8863 14.21875814166046
RS-38
1 35869U 09049E 12334.09187715 .00000081 00000-0 56039-4 0 9743
2 35869 098.6284 025.1025 0004120 304.5240 055.5539 14.22102367166058
JUGNU
1 37839U 11058B 12333.46576898 .00000620 00000-0 19019-3 0 02804
2 37839 019.9569 082.9708 0018472 232.1240 127.7494 14.12108741058490
SRMSAT
1 37841U 11058D 12333.46120265 .00000264 00000-0 00000-0 0 02812
2 37841 019.9692 091.1107 0012148 195.1539 164.8582 14.10184001058411
RAX-2
1 37853U 11061D 12333.38712479 .00007951 00000-0 61602-3 0 3543
2 37853 101.7049 088.4452 0242215 242.1792 115.4664 14.81576906 58696
AUBIESAT
1 37854U 11061E 12333.90055540 .00008122 00000-0 61727-3 0 03539
2 37854 101.7063 089.6818 0243115 239.6479 118.0476 14.82092498058774
HRBE
1 37855U 11061F 12333.93411545 .00007275 00000-0 55590-3 0 03588
2 37855 101.7069 089.6178 0243885 239.7938 117.8907 14.81870206058771
RS-39
1 38051U 11062C 12334.10083333 .00011757 00000-0 44002-3 0 9322
2 38051 051.6361 092.2583 0012175 264.9735 092.4386 15.27664053 47149
E-STAR
1 38079U 12006C 12333.99452975 .00055487 00000-0 13004-2 0 6725
2 38079 069.4793 295.7059 0686674 037.7903 326.9238 14.27909798 40991
GOLIAT
1 38085U 12006J 12334.04585961 .00050722 00000-0 12156-2 0 6488
2 38085 069.4943 296.5077 0690935 038.2684 326.5336 14.26554255 40977
HORYU-2
1 38340U 12025D 12333.87212165 .00001362 00000-0 23307-3 0 2603
2 38340 098.1930 274.1429 0012962 163.2126 196.9493 14.70441332 28673
RS-40
1 38736U 12041D 12333.71373150 .00000010 00000-0 00000-0 0 01177
2 38736 082.4774 280.1204 0020090 047.5009 312.7766 12.42648052015343
PROITERES
1 38756U 12047B 12334.07707932 .00000907 00000-0 14601-3 0 2715
2 38756 098.2770 041.2620 0013284 028.6657 331.5263 14.73997199 11915
AENEAS
1 38760U 0 12331.09885406 .00005825 00000-0 53089-3 0 00780
2 38760 064.6717 176.3169 0217708 268.8856 088.7278 14.79719125010814
CSSWE-D
1 38761U 0 12331.09776106 .00003485 00000-0 32460-3 0 00754
2 38761 064.6716 176.3126 0218812 269.1264 088.4760 14.79577606010810
CXBN-E
1 38762U 0 12331.09435020 .00003955 00000-0 36536-3 0 00730
2 38762 064.6742 176.3044 0218501 268.8055 088.8008 14.79687279010815
OBJECT F
1 38763U 0 12331.09521348 .00003305 00000-0 30808-3 0 00702
2 38763 064.6721 176.2976 0219096 269.1219 088.4779 14.79612116010653
CINEMA-G
1 38764U 0 12331.09425324 .00003451 00000-0 32096-3 0 00703
2 38764 064.6710 176.2896 0218833 269.1871 088.4155 14.79647670010814
CP5
1 38765U 0 12331.09088809 .00004158 00000-0 38305-3 0 00699
2 38765 064.6723 176.2735 0217953 268.8559 088.7571 14.79769807010814
RAIKO
1 38852U 98067CN 12334.21889957 .00035242 00000-0 50884-3 0 588
2 38852 051.6655 020.8627 0015968 336.1948 023.8210 15.55475611 8570
FITSAT 1
1 38853U 98067CP 12334.14121934 .00048718 00000-0 67885-3 0 575
2 38853 051.6504 021.0852 0015428 348.9601 011.0390 15.56296657 8610
TechEdSat
1 38854U 98067CQ 12333.60007097 .00066880 00000-0 87301-3 0 00608
2 38854 051.6467 023.4723 0014882 353.0892 006.7850 15.57921690008530
F 1
1 38855U 98067CR 12334.18104739 .00061493 00000-0 80635-3 0 646
2 38855 051.6469 020.5947 0016979 356.6539 003.0313 15.57795945 8519
WeWish
1 38856U 98067CS 12333.55387142 .00106296 00000-0 12152-2 0 681
2 38856 051.6476 023.1561 0018939 343.6590 016.3768 15.61118417 8429
